Weather Roundup
Issued by NWS

Home | Current Version | Previous Version | Graphics & Text | Print | Product List | Glossary Off
Versions: 1 2 3 4 5 6 7 8 9 10 11 12 13 14 15 16 17 18 19 20 21 22 23 24 25 26 27 28 29 30 31 32 33 34 35 36 37 38 39 40 41 42 43 44 45 46 47 48 49 50

000
NZUS93 KARX 200810
HRRWXR

CURRENT HOURLY OBSERVATIONS ACROSS
MUCH OF THE UPPER MISSISSIPPI VALLEY
NATIONAL WEATHER SERVICE LA CROSSE WI
300 AM CDT SAT SEP 20 2014


...SOUTHEAST MINNESOTA...


CITY           SKY/WX    TMP DP  RH WIND       PRES   REMARKS
ROCHESTER      CLOUDY    64  61  90 S14       29.76F
ROCHESTER/MAYO FAIR      66  61  85 SW13      29.74F
WINONA         DRIZZLE   70  64  83 SW8G21    29.71F
AUSTIN         CLOUDY    64  61  88 S8        29.72F
ALBERT LEA     CLOUDY    66  64  94 S7        29.78R
DODGE CENTER   CLOUDY    66  63  88 SW16      29.75F
PRESTON        LGT RAIN  63  64 100 S13       29.77F
OWATONNA       CLOUDY    66  63  88 S9        29.74S
FARIBAULT      CLOUDY    70  63  78 S6        29.72F
$$

...ELSEWHERE IN MINNESOTA...


CITY           SKY/WX    TMP DP  RH WIND       PRES   REMARKS
MINNEAPOLIS    CLOUDY    70  65  84 SW10      29.69R
INTNL FALLS    FOG       59  59 100 NW8       29.58R VSB 1
DULUTH         FOG       62  60  93 W8        29.59F VSB 1/2
RED WING       CLOUDY    70  63  78 SW7       29.69F
REDWOOD FALLS  PTCLDY    66  60  81 NW9       29.72R
MANKATO        CLOUDY    66  61  82 S8        29.73S
WORTHINGTON    MOCLDY    66  64  94 SW6       29.78S
FAIRMONT       CLOUDY    64  55  72 S10       29.77R
$$

...SOUTHWEST WISCONSIN...


CITY           SKY/WX    TMP DP  RH WIND       PRES   REMARKS
LA CROSSE      RAIN      67  64  90 S18       29.71F FOG
PRAIRIE DU CHI RAIN      65  63  91 W14G22    29.82F
BOSCOBEL       LGT RAIN  69  62  78 SW9       29.85R
LONE ROCK      TSTM      71  61  70 W9G22     29.85R
PLATTEVILLE    CLOUDY    65  60  82 SW16G22   29.87S
FORT MC COY    RAIN      65  63  93 S9G22     29.77F
CAMP DOUGLAS   LGT RAIN  66  66 100 SW13G23   29.76F
VIROQUA        CLOUDY    65  65 100 W9        29.81F
WIS DELLS      TSTM      66  57  73 W7        29.84R
$$

...ELSEWHERE IN WISCONSIN...


CITY           SKY/WX    TMP DP  RH WIND       PRES   REMARKS
MILWAUKEE      MOCLDY    65  52  62 SW23G30   29.83F
MADISON        CLOUDY    66  57  72 SW9       29.83R
GREEN BAY      LGT RAIN  64  56  75 SW10      29.75S
EAU CLAIRE     CLOUDY    68  64  87 SW9       29.67F
BLACK RVR FLS  RAIN      65  65 100 S12G21    29.72S
MEDFORD        CLOUDY    64  61  91 SW8       29.69F
WAUSAU         CLOUDY    64  58  80 SW9       29.71S
WIS RAPIDS     RAIN      64  62  93 S17G24    29.75F FOG
MARSHFIELD     CLOUDY    65  62  90 S13       29.73R
RICE LAKE      CLOUDY    67  64  92 SW7       29.68F FOG
$$

...NORTHEAST IOWA...


CITY           SKY/WX    TMP DP  RH WIND       PRES   REMARKS
WATERLOO       TSTM      67  65  93 SW10      29.86S
DUBUQUE        CLOUDY    63  59  87 SW17      29.85F
DECORAH        LGT RAIN  63  63 100 SW7       29.85R
MASON CITY     LGT RAIN  65  63  93 SW13      29.82S
CHARLES CITY   RAIN      66  64  94 S10       29.82F
OELWEIN        CLOUDY    66  64  94 SW6       29.86F
$$

...ELSEWHERE IN IOWA...


CITY           SKY/WX    TMP DP  RH WIND       PRES   REMARKS
DES MOINES     CLOUDY    71  66  84 N9        29.87R
IOWA CITY      CLOUDY    63  61  93 S6        29.90S
FORT DODGE     CLOUDY    63  61  94 S8        29.85F
MARSHALLTOWN   CLOUDY    69  64  84 SW7       29.89R
CEDAR RAPIDS   CLOUDY    65  63  93 S14       29.86F
$$

...NORTHERN ILLINOIS...


CITY           SKY/WX    TMP DP  RH WIND       PRES   REMARKS
CHICAGO-OHARE  MOCLDY    63  51  65 SW13G22   29.92F
DUPAGE         PTCLDY    59  51  75 S9        29.93F
CHICAGO-MIDWAY MOCLDY    63  52  67 SW12      29.93F
MOLINE         MOCLDY    64  57  78 VRB5      29.90F
ROCKFORD       MOCLDY    61  54  77 S13       29.91F
STERLING       MOCLDY    61  55  82 W3        29.91F
PEORIA         PTCLDY    61  54  77 S6        29.96S
$$

NOTE: "FAIR" INDICATES FEW OR NO CLOUDS BELOW 12,000 FEET WITH NO
SIGNIFICANT WEATHER AND/OR OBSTRUCTIONS TO VISIBILITY. WIND
SPEEDS ARE IN MILES-PER-HOUR.



USA.gov is the U.S. government's official web portal to all federal, state and local government web resources and services.